Regional Weather Roundup
Issued by NWS

Home | Current Version | Previous Version | Graphics & Text | Print | Product List | Glossary On
Versions: 1 2 3 4 5 6 7 8 9 10 11 12 13 14 15 16 17 18 19 20 21 22 23 24 25 26 27 28 29 30 31 32 33 34 35 36 37 38 39 40 41 42 43 44 45 46 47 48 49 50
000
ASUS43 KBIS 120620
RWRND

NORTH DAKOTA REGIONAL WEATHER ROUNDUP
NATIONAL WEATHER SERVICE BISMARCK ND
100 AM CDT SAT JUL 12 2014

NOTE: "FAIR" INDICATES FEW OR NO CLOUDS BELOW 12,000 FEET WITH NO
SIGNIFICANT WEATHER AND/OR OBSTRUCTIONS TO VISIBILITY.


NDZ001>003-009>011-017-120700-
NORTHWEST NORTH DAKOTA

CITY           SKY/WX    TMP DP  RH WIND       PRES   REMARKS
WILLISTON      PTCLDY    60  53  77 NE3       30.13S
6HR MIN TEMP:  60; 6HR MAX TEMP:  79;

MINOT          CLEAR     61  54  77 W9        30.10S
MINOT AFB      CLEAR     57  57  99 W7        30.10S
$$

NDZ018>021-031>035-040>046-120700-
SOUTHWEST NORTH DAKOTA

CITY           SKY/WX    TMP DP  RH WIND       PRES   REMARKS
BISMARCK       CLOUDY    68  58  70 CALM      30.11S
6HR MIN TEMP:  66; 6HR MAX TEMP:  81;

DICKINSON      CLOUDY    64  58  80 E6        30.12S
GARRISON         N/A     62  58  86 N3        30.11S
6HR MIN TEMP:  61; 6HR MAX TEMP:  77;

HETTINGER ARPT CLOUDY    63  55  75 E12       30.13F
$$

NDZ004>008-012>016-024-026-027-054-120700-
NORTHEAST NORTH DAKOTA

CITY           SKY/WX    TMP DP  RH WIND       PRES   REMARKS
GRAND FORKS    CLEAR     60  56  86 W7        30.03R
GRND FRKS AFB  CLEAR     60  59  94 NW6       30.05R
DEVILS LAKE    CLEAR     63  55  77 CALM      30.06S
$$

NDZ022-023-025-028>030-036>039-047>053-120700-
SOUTHEAST NORTH DAKOTA

CITY           SKY/WX    TMP DP  RH WIND       PRES   REMARKS
FARGO          MOCLDY    66  57  72 N6        30.03R
6HR MIN TEMP:  66; 6HR MAX TEMP:  85;

JAMESTOWN      CLOUDY    64  57  78 N6        30.07S
$$




USA.gov is the U.S. government's official web portal to all federal, state and local government web resources and services.